Location: Pace/Milton
(30.6162°N, 87.1503°W)
Time: 10:51:37
(UTC-06:00)

N. Korean satellite - Pass Details

Date: 05 December 2021
Orbit: 447 x 491 km, 97.3° (Epoch: 21 January)

Event Time Altitude Azimuth Distance (km) Brightness Sun altitude
Rises 04:41:20 0° 17° (NNE) 2,449 10.2 -23.2°
Reaches altitude 10° 04:43:24 10° 23° (NNE) 1,573 9.2 -22.7°
Maximum altitude 04:46:41 49° 99° (E) 581 7.3 -22.0°
Drops below altitude 10° 04:49:57 10° 176° (S) 1,568 9.3 -21.4°
Sets 04:52:01 0° 182° (S) 2,440 10.3 -20.9°
